Regional Weather Roundup
Issued by NWS

Home | Current Version | Previous Version | Graphics & Text | Print | Product List | Glossary On
Versions: 1 2 3 4 5 6 7 8 9 10 11 12 13 14 15 16 17 18 19 20 21 22 23 24 25 26 27 28 29 30 31 32 33 34 35 36 37 38 39 40 41 42 43 44 45 46 47 48 49 50
000
ASUS45 KBOU 261807
RWRCO

WEATHER ROUNDUP FOR COLORADO
NATIONAL WEATHER SERVICE DENVER/BOULDER CO
1100 AM MST WED NOV 26 2014

NOTE: "FAIR" INDICATES FEW OR NO CLOUDS BELOW 12000 FEET WITH NO
SIGNIFICANT WEATHER AND/OR OBSTRUCTIONS TO VISIBILITY.

COZ001>005-013-030-031-261900-
...NORTHWEST COLORADO...

CITY           SKY/WX    TMP DP  RH WIND       PRES   REMARKS
CRAIG          PTSUNNY   44  29  55 SW10      30.33S
HAYDEN         PTSUNNY   37  27  65 NW6       30.33S
MEEKER         SUNNY     41  26  55 CALM      30.37S
MOUNT WERNER   NOT AVBL
STEAMBOAT SPGS CLOUDY    35  31  86 E5        30.32F WCI  30
WALDEN         MOSUNNY   34  25  69 SW13      30.25R WCI  25
$$

COZ006>008-011-261900-
...WEST CENTRAL VALLEYS...

CITY           SKY/WX    TMP DP  RH WIND       PRES   REMARKS
GRAND JUNCTION SUNNY     40  20  44 VRB3      30.41F
MONTROSE       SUNNY     47  25  42 CALM      30.42R
EAGLE          MOSUNNY   43  27  52 W20       30.39R
RIFLE          SUNNY     36  24  62 NE3       30.43R
DELTA          SUNNY     46  24  42 CALM      30.41F
NUCLA          SUNNY     45  27  49 CALM      30.46S
$$

COZ017>023-064>068-261900-
...SOUTHWEST COLORADO...

CITY           SKY/WX    TMP DP  RH WIND       PRES   REMARKS
DURANGO        SUNNY     39  17  41 SE10      30.38R
CORTEZ         SUNNY     54  26  34 N18G29    30.39S
PAGOSA SPRINGS SUNNY     38  15  39 CALM      30.39S
TELLURIDE      SUNNY     38  26  61 W3        30.48
WOLF CREEK PAS SUNNY     32  14  47 MISG      30.44R
$$

COZ009-010-012-014-032>034-037-058>063-261900-
...CENTRAL COLORADO...

CITY           SKY/WX    TMP DP  RH WIND       PRES   REMARKS
ASPEN          MOSUNNY   37  26  64 N5        30.40R
BUENA VISTA    MOSUNNY   48  21  34 N8        30.24F
COPPER MTN     CLOUDY    27  21  80 W36G55    30.34R WCI   9
BERTHOUD PASS  NOT AVBL
COTTONWOOD PAS MOSUNNY   39  21  48 W23G49    30.25F
GUNNISON       SUNNY     39  25  56 SW13G20   30.40S
KREMMLING      CLOUDY    36  27  69 W13       30.34S
LEADVILLE      CLOUDY    29  22  75 NW15G23   30.36R WCI  18
MONARCH PASS   CLOUDY    21  19  93 MISG      30.42F
SALIDA         MOSUNNY   50  22  33 W28G36    30.30S
SUNLIGHT       CLOUDY   N/A N/A N/A CALM      30.44R
WILKERSON PASS SUNNY     32  18  55 NW12G35   30.28R WCI  23
$$

COZ069>075-261900-
...SAN LUIS VALLEY/SANGRE DE CRISTO MOUNTAINS...

CITY           SKY/WX    TMP DP  RH WIND       PRES   REMARKS
ALAMOSA        SUNNY     42  17  36 SE7       30.33S
LA VETA PASS   SUNNY     34  19  55 SW9G24    30.28F WCI  26
SAGUACHE       NOT AVBL
$$

COZ035-036-038>040-261900-
...NORTHERN COLORADO FRONT RANGE...

CITY           SKY/WX    TMP DP  RH WIND       PRES   REMARKS
DENVER INTL AP MOSUNNY   34  21  59 E10       30.19S WCI  26
DMNS CITY PARK   N/A     37  22  54 N5        30.20S
AURORA         MOSUNNY   35  22  59 E9        30.18F WCI  28
FRONT RANGE AP NOT AVBL
ERIE MUNI ARPT SUNNY     36  23  59 SE5       30.22S
BOULDER MUN AP SUNNY     36  23  60 E6        30.21S
CENTENNIAL     MOSUNNY   37  22  54 NE7       30.18R
BROOMFIELD     NOT AVBL
FORT COLLINS   MOSUNNY   34  21  60 SE6       30.23F WCI  29
LONGMONT       MOSUNNY   40  23  49 E7        30.23F
$$

COZ041-046-047-076>085-087-088-261900-
...PIKES PEAK/PALMER DIVIDE AND SOUTHERN FOOTHILLS...

CITY           SKY/WX    TMP DP  RH WIND       PRES   REMARKS
COLO. SPRINGS  PTSUNNY   31  25  78 SE10      30.19F WCI  22
A. F. ACADEMY  CLOUDY    30  23  75 S9        30.17F WCI  22
ELLICOTT       NOT AVBL
FALCON         NOT AVBL
FORT CARSON    SUNNY     34  25  71 SE12      30.18F WCI  25
LIMON          MOSUNNY   31  22  69 W5        30.23F WCI  26
MONUMENT HILL  SUNNY     36  28  75 CALM      30.15R
TRINIDAD       MOSUNNY   34  27  75 S7        30.21F WCI  28
$$

COZ042>045-048>051-090-091-261900-
...NORTHEAST COLORADO...

CITY           SKY/WX    TMP DP  RH WIND       PRES   REMARKS
GREELEY ARPT   MOSUNNY   34  21  60 E5        30.24S WCI  30
AKRON          CLOUDY    29  24  82 N7        30.24R WCI  22
BURLINGTON     CLOUDY    32  24  72 N10       30.26S WCI  24
WRAY           LGT SNOW  33  29  86 NW7       30.27S WCI  27
STERLING       FLURRIES  34  30  86 N6        30.26R WCI  29
HOLYOKE        LGT SNOW  34  30  86 N8        30.27R WCI  27
FORT MORGAN    CLOUDY    34  22  62 NE3       30.25S
$$

COZ086-089-092>099-261900-
...SOUTHEAST COLORADO...

CITY           SKY/WX    TMP DP  RH WIND       PRES   REMARKS
PUEBLO         MOSUNNY   39  26  59 S12       30.22F
LA JUNTA       SUNNY     40  22  48 NE3       30.25F
LAMAR          SUNNY     42  22  44 N9        30.26F
SPRINGFIELD      N/A     41  23  48 N13       30.24F
$$


USA.gov is the U.S. government's official web portal to all federal, state and local government web resources and services.